Weather History for Fort Sill, OK

Change the Weather History Date:

Wednesday, December 18, 2013

  Actual Average Record
Temperature  
Mean Temperature 52 °F -  
Max Temperature 69 °F 55 °F 75 °F (1977)
Min Temperature 34 °F 28 °F 8 °F (1964)
Degree Days  
Heating Degree Days 14    
Growing Degree Days 2 (Base 50)    
Moisture  
Dew Point 34 °F    
Average Humidity 55    
Maximum Humidity 73    
Minimum Humidity 30    
Precipitation  
Precipitation 0.00 in - - ()
Sea Level Pressure  
Sea Level Pressure 30.05 in    
Wind  
Wind Speed 6 mph (South)    
Max Wind Speed 21 mph    
Max Gust Speed 29 mph    
Visibility 10 miles    
Events      
Averages and records for this station are not official NWS values.
T = Trace of Precipitation, MM = Missing Value Source: NWS Daily Summary

Daily Weather History Graph

Daily Weather History Graph

Search for Another Location

Airport:

Trip Planner

Search our weather history database for the weather conditions in past years. The results will help you decide how hot, cold, wet, or windy it might be!

Date:

Astronomy

Dec. 18, 2013 Rise Set
Actual Time 7:35 AM CST 5:25 PM CST
Civil Twilight 7:07 AM CST 5:53 PM CST
Nautical Twilight 6:35 AM CST 6:25 PM CST
Astronomical Twilight 6:04 AM CST 6:55 PM CST
Moon 6:55 PM CST (12/18) 8:19 AM CST (12/18)
Length of Visible Light 10h 46m
Length of Day
9h 50m
Full, 98% of the Moon is Illuminated
Dec 18
Full
Dec 25
Last Quarter
Jan 1
New
Jan 7
First Quarter
Jan 15
Full

Hourly Weather History & Observations

Time (CST) Temp. Windchill Dew Point Humidity Pressure Visibility Wind Dir Wind Speed Gust Speed Precip Events Conditions
12:58 AM 38.8 °F - 28.2 °F 66% 30.24 in 10.0 mi Calm Calm - N/A   Clear
1:58 AM 38.5 °F - 27.5 °F 65% 30.21 in 10.0 mi Calm Calm - N/A   Clear
2:58 AM 35.4 °F - 27.5 °F 73% 30.21 in 10.0 mi Calm Calm - N/A   Clear
3:58 AM 34.9 °F - 26.6 °F 72% 30.19 in 10.0 mi Calm Calm - N/A   Clear
4:58 AM 37.4 °F - 27.3 °F 67% 30.17 in 10.0 mi Calm Calm - N/A   Clear
5:58 AM 38.1 °F - 27.3 °F 65% 30.17 in 10.0 mi ESE 1.2 mph - N/A   Clear
6:58 AM 35.8 °F - 27.5 °F 72% 30.17 in 10.0 mi Calm Calm - N/A   Clear
7:58 AM 36.0 °F - 27.9 °F 72% 30.18 in 10.0 mi Calm Calm - N/A   Clear
8:58 AM 39.2 °F 37.0 °F 31.1 °F 73% 30.17 in 10.0 mi South 3.5 mph - N/A   Clear
9:58 AM 45.9 °F 42.3 °F 34.0 °F 63% 30.15 in 10.0 mi South 6.9 mph - N/A   Clear
10:58 AM 52.9 °F - 36.3 °F 53% 30.13 in 10.0 mi SSW 12.7 mph - N/A   Clear
11:58 AM 58.3 °F - 36.3 °F 44% 30.10 in 10.0 mi SSW 10.4 mph - N/A   Clear
12:58 PM 64.9 °F - 37.2 °F 36% 30.04 in 10.0 mi SSW 12.7 mph - N/A   Clear
1:58 PM 67.5 °F - 37.6 °F 33% 29.99 in 10.0 mi SSW 15.0 mph 23.0 mph N/A   Clear
2:58 PM 69.1 °F - 36.3 °F 30% 29.94 in 10.0 mi SSW 20.7 mph 27.6 mph N/A   Clear
3:58 PM 68.2 °F - 36.5 °F 31% 29.92 in 10.0 mi South 20.7 mph 28.8 mph N/A   Clear
4:58 PM 65.7 °F - 36.3 °F 34% 29.91 in 10.0 mi South 16.1 mph - N/A   Mostly Cloudy
5:58 PM 62.4 °F - 36.1 °F 38% 29.90 in 10.0 mi South 18.4 mph - N/A   Clear
6:58 PM 59.2 °F - 36.3 °F 43% 29.89 in 10.0 mi South 12.7 mph - N/A   Clear
7:58 PM 57.7 °F - 37.9 °F 48% 29.90 in 10.0 mi South 16.1 mph - N/A   Clear
8:58 PM 55.9 °F - 40.1 °F 55% 29.89 in 10.0 mi South 13.8 mph - N/A   Partly Cloudy
9:58 PM 55.9 °F - 41.7 °F 59% 29.88 in 10.0 mi South 16.1 mph - N/A   Clear
10:58 PM 55.6 °F - 44.6 °F 67% 29.88 in 10.0 mi South 15.0 mph - N/A   Clear
11:58 PM 54.1 °F - 45.5 °F 73% 29.86 in 10.0 mi South 11.5 mph - N/A   Mostly Cloudy